Regional Weather Roundup
Issued by NWS

Home | Current Version | Previous Version | Text Only | Print | Product List | Glossary Off
Versions: 1 2 3 4 5 6 7 8 9 10 11 12 13 14 15 16 17 18 19 20 21 22 23 24 25 26 27 28 29 30 31 32 33 34 35 36 37 38 39 40 41 42 43 44 45 46 47 48 49 50

000
ASUS43 KMKX 301401
RWRWI

WISCONSIN REGIONAL WEATHER ROUNDUP
NATIONAL WEATHER SERVICE MILWAUKEE/SULLIVAN WI
900 AM CDT TUE SEP 30 2014

NOTE: "FAIR" INDICATES FEW OR NO CLOUDS BELOW 12,000 FEET WITH NO
SIGNIFICANT WEATHER AND/OR OBSTRUCTIONS TO VISIBILITY.

WIZ001-002-006>008-014>016-023>028-301500-
NORTHWEST WISCONSIN

CITY           SKY/WX    TMP DP  RH WIND       PRES   REMARKS
SUPERIOR ARPT  NOT AVBL
ASHLAND        NOT AVBL
HAYWARD        NOT AVBL
SIREN          NOT AVBL
CUMBERLAND     NOT AVBL
RICE LAKE      CLOUDY    40  37  88 NE6       30.12
CHETEK         NOT AVBL
LADYSMITH      NOT AVBL
EAU CLAIRE     NOT AVBL
MENOMONIE      NOT AVBL
NEW RICHMOND   NOT AVBL
OSCEOLA        NOT AVBL
$$

WIZ003>005-009-010-017-018-301500-
NORTH CENTRAL WISCONSIN

CITY           SKY/WX    TMP DP  RH WIND       PRES   REMARKS
MANITOWISH WTR NOT AVBL
ARBOR VITAE    NOT AVBL
WOODRUFF       NOT AVBL
RHINELANDER    NOT AVBL
EAGLE RIVER    NOT AVBL
LAND O LAKES   NOT AVBL
PHILLIPS       CLOUDY    37  37  97 NE7       30.11  WCI  32
TOMAHAWK       NOT AVBL
MEDFORD        NOT AVBL
MERRILL        NOT AVBL
$$

WIZ029-030-035-036-043>047-301500-
CENTRAL WISCONSIN

CITY           SKY/WX    TMP DP  RH WIND       PRES   REMARKS
WAUSAU         NOT AVBL
MOSINEE        NOT AVBL
MARSHFIELD     NOT AVBL
STEVENS POINT  NOT AVBL
WAUPACA        NOT AVBL
WAUTOMA        NOT AVBL
WISC RAPIDS    NOT AVBL
CAMP DOUGLAS   NOT AVBL
$$

WIZ011>013-019>022-031-037>040-048>050-301500-
NORTHEAST WISCONSIN

CITY           SKY/WX    TMP DP  RH WIND       PRES   REMARKS
ANTIGO         NOT AVBL
SHAWANO        CLOUDY    44  39  82 NE12      30.13
OCONTO         NOT AVBL
STURGEON BAY   NOT AVBL
GREEN BAY      NOT AVBL
MANITOWOC      NOT AVBL
APPLETON       NOT AVBL
CLINTONVILLE   NOT AVBL
OSHKOSH        NOT AVBL
$$

WIZ032>034-041-042-053>061-301500-
SOUTHWEST WISCONSIN

CITY           SKY/WX    TMP DP  RH WIND       PRES   REMARKS
LA CROSSE      NOT AVBL
SPARTA         NOT AVBL
VIROQUA        NOT AVBL
BOSCOBEL       NOT AVBL
PRAIRIE DU CHI NOT AVBL
PLATTEVILLE    NOT AVBL
$$

WIZ056-057-062-063-064-067-068-301500-
SOUTH CENTRAL WISCONSIN

CITY           SKY/WX    TMP DP  RH WIND       PRES   REMARKS
REEDSBURG      NOT AVBL
BARABOO/DELLS  NOT AVBL
LONE ROCK      NOT AVBL
MINERAL POINT  NOT AVBL
MADISON        NOT AVBL
MIDDLETON      NOT AVBL
WATERTOWN      NOT AVBL
MONROE         NOT AVBL
JANESVILLE     NOT AVBL
$$

WIZ051-052-058>065-066-070>072-301500-
SOUTHEAST WISCONSIN

CITY           SKY/WX    TMP DP  RH WIND       PRES   REMARKS
MILWAUKEE      NOT AVBL
WAUKESHA       NOT AVBL
MILWAUKEE/TIMM NOT AVBL
RACINE         NOT AVBL
BURLINGTON     NOT AVBL
KENOSHA        NOT AVBL
FOND DU LAC    NOT AVBL
SHEBOYGAN      NOT AVBL
WEST BEND      NOT AVBL
JUNEAU         NOT AVBL
$$

LSZ147-162-301500-
LAKE SUPERIOR

STATION/POSITION TIME  TEMP    WIND        PRES    WAVE
                       AIR SEA DIR/SP/G            HT/PER
                 (UTC) (F)     (DEG/KT/KT) (MB)    (FT/S)
W MID LAKE BUOY  1150   44 49   90/  6/ 12 1022.2R   3/ 6
SAXON HARBOR     1300   43      90/  2/  8 1021.3
$$

LMZ867-665-643>646-301500-
LAKE MICHIGAN

STATION/POSITION TIME  TEMP    WIND        PRES    WAVE
                       AIR SEA DIR/SP/G            HT/PER
                 (UTC) (F)     (DEG/KT/KT) (MB)    (FT/S)
CHAMBERS ISLAND  1300   45     330/ 14/ 20 1019.3
S GREEN BAY BUOY 1330   45                 1020.3F
NORTHPORT PIER   1300   46     350/ 15/ 18 1019.0
KEWAUNEE LAKESHO 1306   44     350/  6/ 10 1018.0F
SHEBOYGAN LAKESH 1200   45 54  330/ 12/ 14 1019.3S
PORT WASHINGTON  1300          340/  4/ 12 1019.3
ATWATER BUOY     1300   48     340/ 16/ 19 1019.1F
MILWAUKEE LAKESH 1315          330/  7/  9   N/A
S MID LAKE BUOY  1150   52 61  350/ 16/ 19 1017.0R   7/ 8
$$

TC  - TEMPERATURE IN CELSIUS
VSB - VISIBILITY IN STATUTE MILES
WCI - WIND CHILL INDEX
HX  - HEAT INDEX




USA.gov is the U.S. government's official web portal to all federal, state and local government web resources and services.